Weather in Washington

United States     38°39′08″N   87°10′15″W
temp.,
°C
wind,
m/s
gust,
m/s
humid.,
%
clouds,
%
prec.,
mm/h
press.,
hPa
HPBL,
m
18 september, sat
sat1823:00+22s22834 0.0 101914
02:00+21sse11910 0.1 101911
05:00+21ese11902 0.1 101911
08:00+20e22925 0.1 102018
11:00+27ese236928 0.0 1020468
14:00+31e344051 0.0 10192042
17:00+32ne333798 0.0 10172214
20:00+25sse2565100 0.3 101886
19 september, sun
sun1923:00+23ssw238673 0.2 101930
02:00+21s2292100 0.3 101932
05:00+20ssw1193100 0.0 101911
08:00+20e2294100 0.0 101934
11:00+26ese347299 0.0 1019468
14:00+31ese4543100 0.0 10171803
17:00+30se5643100 0.0 10151947
20:00+23sse4980100 1.4 1016173
20 september, mon
mon2023:00+21sse51291100 2.0 1017404
02:00+21se41195100 2.1 1017520
05:00+20se41096100 1.8 1016484
08:00+20se51196100 1.9 1016447
11:00+20se51195100 0.1 1017625
14:00+21sse5993100 0.1 1016606
17:00+24s588497 0.4 1014725
20:00+22se5108985 0.6 1015473
21 september, tue
tue2123:00+21sse51295100 0.0 1016480
02:00+20sse5129697 0.0 1016402
05:00+21sse5119495 0.0 1015470
08:00+21s51092100 0.1 1016555
11:00+23ssw6108693 0.0 1016637
14:00+27sw7970100 0.5 10151381
17:00+23w5890100 2.4 1015660
20:00+19nw51094100 4.1 1017684
22 september, wed
wed2223:00+16nnw5119239 1.3 1018550
02:00+14nnw5129545 1.3 1020397
05:00+12nnw412920 0.0 1020307
08:00+11nnw39940 0.0 1022229
11:00+17n711540 0.0 1023792
14:00+21n710380 0.0 10231749
17:00+21nnw79380 0.0 10221963
20:00+15n35570 0.0 102270